Satellite: SO-50
Catalog number: 27607
Epoch time:      12068.57547874
Element set:     707
Inclination:      064.5570 deg
RA of node:       240.9296 deg
Eccentricity:    0.0085130
Arg of perigee:   268.2976 deg
Mean anomaly:     090.8348 deg
Mean motion:   14.72241208 rev/day
Decay rate:       6.44e-06 rev/day^2
Epoch rev:           49515
Checksum:              332

Satellite: CO-55
Catalog number: 27844
Epoch time:      12068.58376257
Element set:     326
Inclination:      098.7039 deg
RA of node:       078.4222 deg
Eccentricity:    0.0010409
Arg of perigee:   149.4477 deg
Mean anomaly:     210.7328 deg
Mean motion:   14.20971228 rev/day
Decay rate:        8.7e-07 rev/day^2
Epoch rev:           45060
Checksum:              317

Satellite: CO-57
Catalog number: 27848
Epoch time:      12067.51364720
Element set:    0275
Inclination:      098.7128 deg
RA of node:       076.6554 deg
Eccentricity:    0.0009795
Arg of perigee:   155.7109 deg
Mean anomaly:     204.4520 deg
Mean motion:   14.20729611 rev/day
Decay rate:       1.66e-06 rev/day^2
Epoch rev:           45039
Checksum:              319

Satellite: AO-51
Catalog number: 28375
Epoch time:      12067.55864821
Element set:     211
Inclination:      098.1340 deg
RA of node:       037.6305 deg
Eccentricity:    0.0084265
Arg of perigee:   349.4979 deg
Mean anomaly:     010.4458 deg
Mean motion:   14.40904934 rev/day
Decay rate:       1.96e-06 rev/day^2
Epoch rev:           40413
Checksum:              307

Satellite: CP3
Catalog number: 31129
Epoch time:      12066.95774588
Element set:    0111
Inclination:      097.8865 deg
RA of node:       080.7489 deg
Eccentricity:    0.0102500
Arg of perigee:   081.3100 deg
Mean anomaly:     279.9704 deg
Mean motion:   14.52914447 rev/day
Decay rate:       8.78e-06 rev/day^2
Epoch rev:           25913
Checksum:              321

Satellite: CO-65
Catalog number: 32785
Epoch time:      12067.82453336
Element set:     247
Inclination:      097.8126 deg
RA of node:       131.2354 deg
Eccentricity:    0.0015373
Arg of perigee:   037.3346 deg
Mean anomaly:     322.8927 deg
Mean motion:   14.82729580 rev/day
Decay rate:      1.392e-05 rev/day^2
Epoch rev:           20874
Checksum:              320

Satellite: PRISM
Catalog number: 33493
Epoch time:      12068.70226033
Element set:     494
Inclination:      098.1546 deg
RA of node:       207.0040 deg
Eccentricity:    0.0018074
Arg of perigee:   261.6424 deg
Mean anomaly:     098.2745 deg
Mean motion:   14.83307542 rev/day
Decay rate:      3.407e-05 rev/day^2
Epoch rev:           16885
Checksum:              292

Satellite: SOHLA-1
Catalog number: 33496
Epoch time:      12068.83571717
Element set:     669
Inclination:      098.0932 deg
RA of node:       181.3027 deg
Eccentricity:    0.0006740
Arg of perigee:   009.5462 deg
Mean anomaly:     350.5865 deg
Mean motion:   14.69884425 rev/day
Decay rate:       4.95e-06 rev/day^2
Epoch rev:           16750
Checksum:              329

Satellite: SO-67
Catalog number: 35870
Epoch time:      12068.75638398
Element set:     751
Inclination:      097.2445 deg
RA of node:       108.0326 deg
Eccentricity:    0.0003116
Arg of perigee:   133.7856 deg
Mean anomaly:     002.8205 deg
Mean motion:   15.22944530 rev/day
Decay rate:      4.980e-05 rev/day^2
Epoch rev:           13732
Checksum:              308

Satellite: TISAT-1
Catalog number: 36799
Epoch time:      12068.79253858
Element set:     768
Inclination:      098.0699 deg
RA of node:       144.3934 deg
Eccentricity:    0.0016208
Arg of perigee:   135.9320 deg
Mean anomaly:     224.3159 deg
Mean motion:   14.81587328 rev/day
Decay rate:      2.080e-05 rev/day^2
Epoch rev:            8962
Checksum:              346

Satellite: STUDSAT
Catalog number: 36801
Epoch time:      12068.86398432
Element set:     351
Inclination:      098.0768 deg
RA of node:       144.7872 deg
Eccentricity:    0.0014165
Arg of perigee:   123.1393 deg
Mean anomaly:     237.1189 deg
Mean motion:   14.83289889 rev/day
Decay rate:      5.107e-05 rev/day^2
Epoch rev:            8964
Checksum:              336

Satellite: FO-69
Catalog number: 37227
Epoch time:      12046.04422040
Element set:    0103
Inclination:      071.9672 deg
RA of node:       223.6606 deg
Eccentricity:    0.0017759
Arg of perigee:   195.0744 deg
Mean anomaly:     164.9889 deg
Mean motion:   14.76923927 rev/day
Decay rate:       3.30e-06 rev/day^2
Epoch rev:           01791
Checksum:              314

Satellite: FO-70
Catalog number: 37380
Epoch time:      12046.50349291
Element set:    0106
Inclination:      071.9705 deg
RA of node:       223.0530 deg
Eccentricity:    0.0018152
Arg of perigee:   191.1227 deg
Mean anomaly:     168.9536 deg
Mean motion:   14.76682035 rev/day
Decay rate:       3.31e-06 rev/day^2
Epoch rev:           01787
Checksum:              285

/EX
SB KEPS @ AMSAT  $ORB12068.W
Orbital Elements  12068.WEATHER

HR AMSAT ORBITAL ELEMENTS FOR WEATHER SATELLITES
FROM WA5QGD FORT WORTH,TX March 8, 2012
Send SUBSCRIBE KEPS/UNSUBSCRIBE KEPS to majordomo@amsat.org only
BID: ORB12068.W
TO ALL RADIO AMATEURS BT

